Regional Weather Roundup
Issued by NWS Little Rock, AR

Home | Current Version | Previous Version | Text Only | Print | Product List | Glossary Off
Versions: 1 2 3 4 5 6 7 8 9 10 11 12 13 14 15 16 17 18 19 20 21 22 23 24 25 26 27 28 29 30 31 32 33 34 35 36 37 38 39 40 41 42 43 44 45 46 47 48 49 50

000
ASUS44 KLZK 231815
RWRLZK

WEATHER ROUNDUP FOR ARKANSAS
NATIONAL WEATHER SERVICE LITTLE ROCK AR
100 PM CDT MON APR 23 2018

NOTE: "FAIR" INDICATES FEW OR NO CLOUDS BELOW 12,000 FEET WITH NO
SIGNIFICANT WEATHER AND/OR OBSTRUCTIONS TO VISIBILITY.

ARZ001-003-010-029-231900-
NORTHWEST ARKANSAS

CITY           SKY/WX    TMP DP  RH WIND       PRES   REMARKS
FAYETTEVILLE   PTSUNNY   64  54  69 NW10      29.99F
6HR MIN TEMP:  50; 6HR MAX TEMP:  65;

FORT SMITH     CLOUDY    66  55  67 W13G23    29.99F
6HR MIN TEMP:  53; 6HR MAX TEMP:  66;

HARRISON       PTSUNNY   68  50  52 N16G28    29.93F
6HR MIN TEMP:  51; 6HR MAX TEMP:  68; 6HR PCP:  0.01;

BENTONVILLE    PTSUNNY   63  52  67 NW13      30.01F
6HR MIN TEMP:  50; 6HR MAX TEMP:  64;

ROGERS         PTSUNNY   63  50  62 NW14G21   30.00F
6HR MIN TEMP:  50; 6HR MAX TEMP:  65;

SILOAM SPGS    CLOUDY    63  53  70 NW13G21   30.02F
6HR MIN TEMP:  50; 6HR MAX TEMP:  63;

HIGHFILL       SUNNY     64  52  63 NW13G22   30.00F
SPRINGDALE     PTSUNNY   63  52  67 NW16      30.00F
$$

ARZ004-005-016-231900-
NORTH CENTRAL ARKANSAS

CITY           SKY/WX    TMP DP  RH WIND       PRES   REMARKS
BATESVILLE     CLOUDY    55  50  83 VRB6      29.91S
6HR MIN TEMP:  54; 6HR MAX TEMP:  56; 6HR PCP:  0.01;

FLIPPIN        CLOUDY    66  53  63 NE9G17    29.91F
6HR MIN TEMP:  55; 6HR MAX TEMP:  66;

MTN HOME       CLOUDY    63  50  62 N10G18    29.90F
6HR MIN TEMP:  54; 6HR MAX TEMP:  65; 6HR PCP: TRACE;

$$

ARZ040-041-231900-
WEST CENTRAL ARKANSAS

CITY           SKY/WX    TMP DP  RH WIND       PRES   REMARKS
MENA           CLOUDY    61  59  94 W8        30.01F
MOUNT IDA      PTSUNNY   63  54  72 N8G17     29.95F
6HR MIN TEMP:  54; 6HR MAX TEMP:  64;

$$

ARZ009-017-025-026-028-231900-
NORTHEAST ARKANSAS

CITY           SKY/WX    TMP DP  RH WIND       PRES   REMARKS
CORNING        FAIR      55  55 100 NW7       29.88R FOG
JONESBORO      LGT RAIN  56  55  97 NW5       29.88S FOG
6HR MIN TEMP:  54; 6HR MAX TEMP:  56; 6HR PCP:  0.07;

NEWPORT        LGT RAIN  54  52  93 NW10      29.90S FOG
6HR MIN TEMP:  54; 6HR MAX TEMP:  57; 6HR PCP:  0.05;

WALNUT RIDGE   LGT RAIN  55  53  93 NW12      29.88F FOG
6HR MIN TEMP:  53; 6HR MAX TEMP:  55; 6HR PCP:  0.06;

BLYTHEVILLE    LGT RAIN  56  54  93 NW3       29.88R FOG
6HR MIN TEMP:  55; 6HR MAX TEMP:  57; 6HR PCP:  0.42;

NW BLYTHEVILLE LGT RAIN  55  54  94 CALM      29.88S FOG
$$

ARZ022-023-033-042-044-231900-
CENTRAL ARKANSAS

CITY           SKY/WX    TMP DP  RH WIND       PRES   REMARKS
LITTLE ROCK    CLOUDY    62  54  74 NW10      29.92S
6HR MIN TEMP:  55; 6HR MAX TEMP:  63;

N LITTLE ROCK    N/A     59  55  86 NW3       29.89F
6HR MIN TEMP:  53; 6HR MAX TEMP:  59;

JACKSONVILLE   LGT RAIN  59  56  89 NW7       29.91S
6HR MIN TEMP:  56; 6HR MAX TEMP:  62; 6HR PCP: TRACE;

CONWAY         CLOUDY    64  55  72 NW10      29.91F
SEARCY         CLOUDY    58  55  90 NW6       29.91S
6HR MIN TEMP:  56; 6HR MAX TEMP:  59;

HOT SPRINGS    CLOUDY    62  54  74 NW7       29.96S
6HR MIN TEMP:  56; 6HR MAX TEMP:  64;

RUSSELLVILLE   CLOUDY    65  55  70 W12       29.92F
6HR MIN TEMP:  55; 6HR MAX TEMP:  67;

CLINTON        CLOUDY    61  52  72 NW6       29.92S
$$

ARZ036-231900-
EAST ARKANSAS

CITY           SKY/WX    TMP DP  RH WIND       PRES   REMARKS
WEST MEMPHIS   LGT RAIN  57  57 100 NW3       29.88R FOG
6HR MIN TEMP:  56; 6HR MAX TEMP:  58;

$$

ARZ050-053-066-070-073-231900-
SOUTHWEST ARKANSAS

CITY           SKY/WX    TMP DP  RH WIND       PRES   REMARKS
ARKADELPHIA    CLOUDY    65  54  67 NW10G17   29.96F
6HR MIN TEMP:  54; 6HR MAX TEMP:  66;

CAMDEN         CLOUDY    63  52  67 CALM      29.96F
TEXARKANA      PTSUNNY   67  54  63 NW14      29.99F
6HR MIN TEMP:  54; 6HR MAX TEMP:  67;

EL DORADO      CLOUDY    65  56  72 W8        29.97F
6HR MIN TEMP:  53; 6HR MAX TEMP:  66;

DE QUEEN       MOSUNNY   68  55  63 N8        29.98F
6HR MIN TEMP:  54; 6HR MAX TEMP:  68;

$$

ARZ056-057-069-231900-
SOUTHEAST ARKANSAS

CITY           SKY/WX    TMP DP  RH WIND       PRES   REMARKS
PINE BLUFF     CLOUDY    60  54  80 SW10      29.93S
6HR MIN TEMP:  54; 6HR MAX TEMP:  62;

STUTTGART      LGT RAIN  59  57  94 NW14      29.91S
6HR MIN TEMP:  56; 6HR MAX TEMP:  61; 6HR PCP:  0.03;

MONTICELLO     CLOUDY    62  52  69 W12       29.94F
6HR MIN TEMP:  53; 6HR MAX TEMP:  64;


$$





USA.gov is the U.S. government's official web portal to all federal, state and local government web resources and services.